Theta_e
307 306 306 306 307 307 307 307 308 308 308 308 308 308 308 308 308 308 308 309 309 310 312 314 316 319 319 320 321 321 319 318 313 315 317 317 310 313 309 309 310 309 310
305 305 305 306 305 305 305 305 305 305 306 306 306 307 307 307 308 307 307 308 308 308 310 312 313 316 315 317 318 317 318 319 316 313 315 316 311 307 309 305 305 306 306
302 302 302 303 302 301 302 302 302 302 303 303 304 304 304 304 304 305 306 307 307 309 309 310 311 313 312 313 314 315 316 317 317 315 314 317 316 302 299 300 300 301 303
299 299 298 300 299 299 299 300 300 301 301 302 302 302 302 303 304 303 304 303 303 306 307 308 309 310 310 311 312 313 314 313 314 313 314 314 315 303 303 303 296 298 298
296 296 296 296 295 295 295 297 297 298 299 299 298 298 301 301 303 302 302 302 304 304 305 306 307 307 306 308 310 310 311 310 311 310 310 312 312 298 298 300 301 300 297
292 292 293 292 292 292 293 293 294 294 295 295 295 298 297 300 303 304 304 303 304 300 298 301 303 304 306 309 311 310 310 309 308 308 309 308 309 310 307 303 301 293 291
289 290 289 289 289 290 290 290 290 290 291 291 293 293 294 296 300 304 303 301 296 296 298 298 300 303 302 305 305 307 307 309 309 309 308 309 310 311 310 306 302 300 298
287 285 286 286 286 287 287 287 287 288 288 289 290 290 291 292 298 301 303 294 293 295 296 296 298 295 298 301 302 302 302 304 306 309 309 310 312 313 313 310 305 294 286
283 283 284 284 284 285 284 284 285 286 286 286 287 289 288 290 296 299 296 293 291 292 295 295 293 292 297 300 298 297 298 299 302 303 304 303 305 307 310 296 289 288 284
282 283 283 284 283 283 283 283 284 284 285 286 285 286 290 289 294 294 293 291 289 290 293 292 294 294 297 297 295 295 294 294 297 299 301 303 299 302 306 303 299 292 285
283 283 283 283 282 283 283 283 283 283 283 283 283 285 286 288 287 292 293 290 289 290 291 291 291 294 296 296 298 296 296 298 298 298 299 290 287 287 288 289 291 293 286
282 282 282 282 283 283 282 282 282 282 281 281 282 284 285 285 289 290 291 292 293 290 290 290 290 293 294 297 298 300 300 299 297 296 290 286 285 285 285 285 285 285 285
280 280 281 281 282 282 281 281 281 281 281 281 282 282 283 285 285 290 291 292 293 290 290 291 293 293 295 294 295 296 295 291 292 288 285 284 284 285 284 282 283 284 283
279 280 280 280 281 281 282 282 281 280 280 281 282 282 283 284 285 286 287 288 290 289 289 289 292 292 293 292 291 291 288 288 287 286 285 284 284 283 282 282 280 281 280
279 280 280 280 280 280 281 280 280 282 283 282 283 283 282 283 285 289 288 287 287 288 289 289 287 286 287 287 287 287 288 287 285 284 283 283 282 281 280 281 280 280 278
279 280 280 280 280 280 279 279 284 286 287 287 287 286 285 288 289 289 288 290 289 289 287 284 283 283 284 285 285 285 286 287 284 283 282 282 281 280 279 280 280 280 279
278 279 279 280 279 278 278 279 278 282 286 286 286 287 287 287 287 287 288 288 287 287 283 282 282 282 283 285 285 285 284 286 283 282 282 281 280 280 280 279 279 279 278
279 283 280 279 279 279 279 279 280 279 279 280 284 285 286 286 286 287 287 285 281 283 281 281 281 282 283 284 285 284 284 283 282 281 281 280 280 280 279 279 279 278 276
279 279 279 279 280 281 280 280 279 279 279 279 280 282 284 285 286 286 285 280 279 280 280 280 281 282 283 284 285 285 283 282 281 280 280 280 280 280 279 279 279 278 276
278 282 282 280 279 279 279 279 279 278 278 278 279 279 280 281 280 279 279 279 278 280 280 280 281 281 283 283 284 284 283 282 280 280 280 280 280 280 279 278 276 274 271
279 279 282 279 278 279 279 278 278 278 278 279 279 280 284 281 279 279 278 278 278 280 280 280 281 281 281 282 284 283 282 281 280 280 280 280 280 279 278 276 275 274 272
279 279 279 278 279 278 278 279 278 278 278 278 278 280 283 280 280 279 278 278 278 280 280 280 281 279 280 281 283 282 282 280 280 280 280 279 279 278 276 275 274 271 270
279 278 278 278 278 280 278 278 278 278 277 278 278 278 278 278 279 279 278 278 279 279 279 281 279 278 280 282 284 283 282 280 280 281 279 279 278 276 275 272 271 270 269
278 278 278 279 278 278 278 277 277 278 278 278 277 277 277 278 279 278 278 278 278 278 279 279 278 278 280 281 283 283 282 281 282 281 280 278 276 275 273 271 270 267 268
279 278 278 278 277 277 277 277 277 277 277 276 276 277 277 278 277 277 277 277 277 277 278 278 277 278 279 280 282 282 282 283 281 281 280 275 273 271 270 268 268 267 267
278 278 278 278 277 277 277 276 275 274 274 275 276 275 276 276 277 276 275 275 277 278 276 277 277 278 278 282 282 282 284 284 283 282 278 275 273 271 270 269 268 269 267
Wind_Speed
10 9 9 8 8 9 9 9 10 10 10 11 11 11 11 12 11 11 12 13 12 12 11 12 13 13 11 11 12 12 13 13 16 16 14 13 7 11 6 7 8 11 9
7 7 8 7 7 8 9 9 10 10 10 11 12 11 11 12 12 13 14 14 14 14 13 12 13 10 12 12 11 15 15 15 15 21 16 12 11 10 10 11 9 8 9
9 10 10 10 10 10 11 12 14 14 15 15 13 12 13 13 14 14 14 12 10 12 11 11 13 13 14 12 13 12 12 13 16 16 18 13 12 4 2 4 6 7 6
8 8 10 10 11 11 13 13 14 14 15 15 15 16 16 15 14 14 10 16 14 12 12 11 13 13 14 15 15 16 14 13 14 14 15 15 14 5 6 8 6 6 8
8 8 8 8 10 11 12 13 14 14 15 15 15 17 15 16 12 16 17 16 14 10 9 11 13 14 18 20 13 15 15 13 13 13 14 13 12 4 8 6 11 9 10
7 9 9 11 12 12 12 14 14 14 14 14 15 13 16 12 21 26 21 12 9 10 13 14 14 17 17 23 21 21 20 16 16 13 13 15 17 12 8 11 10 4 5
8 8 10 11 12 12 13 14 14 14 14 15 14 14 15 14 22 24 24 9 9 10 11 14 15 12 19 18 22 25 23 21 19 16 18 16 17 13 11 13 14 12 11
7 9 11 12 13 14 14 14 14 13 14 14 13 16 13 15 26 24 14 8 9 11 9 12 12 17 17 19 19 18 18 17 16 14 15 15 17 15 13 13 14 4 5
6 8 10 11 12 13 13 14 13 13 14 14 15 15 18 17 24 15 19 13 13 15 12 8 13 16 21 26 20 19 20 21 20 24 21 22 22 25 18 6 7 9 3
6 8 9 10 11 12 13 13 13 12 15 12 15 16 19 15 11 25 24 13 15 13 10 14 20 19 26 28 22 19 20 21 21 21 17 18 11 15 17 15 9 11 5
7 8 8 9 11 11 11 12 12 12 13 13 14 14 11 10 16 27 27 14 13 13 12 12 12 27 29 34 32 19 18 21 22 17 14 6 3 4 4 4 4 5 5
7 8 9 10 9 11 12 11 11 12 11 13 14 10 10 12 20 23 28 27 25 14 13 12 16 29 34 31 27 28 28 27 13 11 7 3 0 2 3 4 6 7 5
6 9 10 11 10 10 10 12 10 10 10 11 10 11 11 11 12 24 26 27 26 18 13 21 32 32 26 20 27 30 24 11 11 7 3 1 0 1 6 6 9 11 11
9 10 9 10 12 11 9 8 9 9 10 11 12 12 12 13 12 11 11 14 20 16 20 17 22 23 20 21 18 16 9 8 6 4 2 1 2 2 3 3 6 7 8
8 9 10 9 10 11 10 9 9 10 12 13 12 12 13 13 12 24 23 16 15 19 24 13 13 12 12 12 12 14 11 8 5 3 2 2 2 4 5 5 5 4 4
10 9 9 10 9 10 10 11 17 22 25 25 26 20 12 23 28 30 31 30 29 31 13 11 13 13 13 13 14 13 12 12 5 4 2 1 3 4 6 5 5 3 4
9 10 9 11 10 10 10 11 13 15 24 23 23 25 26 25 29 29 28 28 27 24 10 10 11 11 13 13 13 12 13 11 5 4 2 2 3 5 8 5 5 5 4
10 18 10 10 9 9 10 10 9 12 13 12 16 20 22 27 27 27 25 23 13 12 10 11 12 12 13 13 12 12 12 9 3 3 2 2 4 5 5 5 5 5 4
10 7 8 9 8 12 10 10 10 11 11 11 11 14 17 24 25 21 21 8 10 11 11 11 11 12 13 13 12 12 10 8 4 3 1 1 2 4 4 4 5 8 7
7 17 16 9 9 9 9 10 10 10 11 10 10 10 11 15 10 9 8 8 9 9 10 11 12 13 13 14 12 12 9 6 2 1 2 3 3 3 4 5 4 4 2
8 9 17 10 9 9 9 10 10 10 10 10 11 11 26 14 11 9 8 8 9 10 11 12 12 12 14 13 11 12 8 3 2 2 2 3 4 4 4 5 4 4 4
8 9 9 9 9 10 10 10 10 11 11 11 11 11 24 10 9 8 7 8 8 8 10 11 11 12 13 13 11 11 8 2 1 2 3 4 4 5 4 4 4 3 2
9 10 9 9 10 15 11 10 9 9 10 11 10 10 10 11 9 8 8 8 8 9 10 9 11 12 13 12 11 9 6 2 2 3 4 5 5 4 4 4 3 2 2
10 11 10 10 10 11 10 11 10 14 13 10 11 11 10 10 9 10 9 8 9 9 9 9 12 15 15 15 10 7 2 1 2 3 6 5 4 5 4 4 2 3 3
10 10 11 11 11 10 11 10 9 9 9 11 10 10 10 10 10 9 8 8 8 9 10 12 11 15 17 22 14 8 3 7 5 7 5 6 7 6 5 4 3 3 3
11 11 10 9 10 10 9 9 9 9 9 9 9 8 9 10 9 9 8 8 8 9 12 10 14 19 21 13 11 8 5 9 9 12 6 6 6 5 4 5 5 2 3
Wind_Direction
12 6 4 358 0 3 1 352 347 338 332 328 322 316 316 314 310 306 301 295 291 286 283 282 283 280 274 269 267 258 251 241 251 261 255 259 220 224 221 220 219 215 215
359 360 355 353 357 357 351 344 337 329 323 316 313 308 309 311 311 307 304 299 298 296 294 291 284 288 286 284 279 273 263 255 258 262 258 254 234 217 220 209 216 217 214
3 2 357 351 354 350 347 343 341 335 330 325 319 315 316 312 308 306 301 308 317 305 295 291 291 291 289 287 282 281 278 273 266 262 264 256 249 171 192 242 210 209 216
358 359 354 355 356 351 344 340 335 330 325 324 324 323 319 315 315 307 326 318 312 301 295 292 293 289 289 292 289 286 285 283 279 274 268 260 248 190 203 207 207 215 214
357 355 348 354 349 342 338 332 328 326 323 323 324 318 319 315 313 325 316 317 306 296 303 309 304 297 294 286 281 282 281 282 281 279 276 276 268 222 206 202 221 211 215
358 349 357 350 343 336 331 328 324 322 319 317 312 310 311 307 317 309 315 315 317 322 321 318 311 307 306 302 302 297 284 285 283 281 278 275 276 265 223 215 224 168 218
356 2 351 343 336 330 325 324 322 318 316 312 302 312 301 304 303 302 311 301 329 323 317 317 310 318 318 313 317 312 308 303 291 285 284 281 279 272 245 228 218 213 215
354 352 342 334 327 323 321 317 314 313 312 310 312 308 308 308 307 309 308 327 324 305 298 297 311 312 308 311 310 311 306 301 302 293 281 282 281 268 258 242 225 158 72
341 335 327 318 315 316 314 313 312 313 310 314 309 313 309 303 308 330 345 338 323 313 298 303 311 303 306 318 312 307 304 300 297 291 277 275 278 271 259 140 149 165 162
316 315 309 308 306 307 306 312 309 306 310 311 310 303 299 306 324 345 341 323 317 311 309 312 312 307 310 315 314 305 298 300 301 300 297 289 284 275 258 207 181 200 141
300 300 300 302 302 299 307 308 304 307 307 303 305 305 304 329 334 324 322 322 315 308 313 312 312 312 312 312 306 301 294 296 293 288 286 280 323 353 14 15 113 177 162
289 297 303 301 300 305 301 301 304 303 303 309 303 306 319 319 316 318 321 319 313 312 314 314 309 310 311 309 315 313 316 314 297 287 274 248 102 65 60 57 77 85 63
304 302 300 300 299 300 304 307 307 312 310 309 312 319 316 318 312 315 314 317 325 324 316 312 310 309 310 324 319 322 330 324 315 306 308 7 111 113 102 88 79 80 77
302 301 301 303 308 310 302 302 308 308 312 315 317 317 316 313 311 314 321 324 323 324 320 307 306 313 320 318 323 321 313 312 309 303 269 135 122 109 102 92 103 98 90
301 302 305 305 307 308 306 308 310 309 313 317 314 311 310 308 313 324 324 331 326 324 322 318 324 324 317 320 321 320 317 302 291 283 247 191 147 118 100 95 100 95 93
311 309 304 307 303 304 306 308 308 309 312 313 314 311 311 317 321 326 330 326 333 334 330 329 325 321 320 320 322 316 317 304 276 266 242 187 147 134 123 115 113 96 106
288 296 298 304 301 306 307 306 308 310 311 313 313 319 319 322 324 327 327 338 338 335 330 329 320 316 316 313 316 314 312 308 278 268 242 179 142 144 144 140 128 111 112
285 291 296 295 297 296 297 298 299 307 309 312 315 315 324 321 322 324 339 341 326 330 331 325 316 313 311 313 315 314 313 307 291 279 251 174 166 147 136 128 131 119 123
290 293 292 294 295 294 300 301 299 300 301 303 306 314 316 313 320 328 335 329 322 321 328 322 312 310 308 314 316 314 309 297 282 280 287 87 97 119 119 126 121 139 115
282 297 303 298 295 299 299 297 299 298 297 298 303 303 311 313 319 325 330 323 321 321 321 316 309 310 313 314 317 316 310 300 323 343 48 94 97 110 123 114 87 101 115
295 298 300 301 294 292 296 296 295 293 292 298 304 303 310 320 319 315 314 313 317 321 321 312 309 317 312 312 318 317 309 293 333 75 93 92 106 101 84 82 99 99 107
295 296 295 293 294 295 294 291 298 301 294 300 303 303 311 314 303 298 301 304 308 308 313 311 314 314 310 310 315 313 305 256 158 111 106 109 95 89 85 98 95 95 91
298 293 289 288 291 293 298 292 289 291 296 296 304 309 317 308 308 309 306 305 309 308 309 307 312 312 308 311 312 308 296 224 169 142 127 100 93 92 106 103 105 95 92
293 290 285 287 290 290 297 296 290 293 301 303 311 307 306 311 315 314 309 302 303 305 305 309 311 310 308 312 315 308 275 125 129 124 110 111 111 113 96 90 94 78 65
294 291 290 291 290 291 292 289 290 299 303 300 300 302 306 306 307 303 303 299 300 302 313 312 310 312 315 314 317 311 254 152 117 102 98 89 99 103 93 89 78 54 45
296 294 292 291 291 293 295 298 294 290 286 285 289 290 293 299 301 302 297 296 301 312 311 312 310 313 316 314 319 307 215 152 127 110 94 101 109 91 92 92 87 69 54